Find Starlink 30715

NORAD ID: 57941 Int'l Des: 2023-148 Owner: SPXS Country: US Constellation: starlink operational
LEOCIRCULAR

現在のビュー

3D地球を読み込み中...

About Starlink 30715

Starlink 30715 (NORAD 57941) is a starlink constellation satellite (v2 mini) launched Sep 25, 2023 by SPXS of US. It operates in LEO, CIRCULAR orbit with a mass of 730.00 kg.

Starlink 30715について

説明を読み込み中...

次回通過

Passes for default location (London). Set your location on the main map for personalized predictions.

高度履歴

Loading altitude history...

軌道要素

1 57941U 23148G 26174.61221725 -.00002984 00000-0 -88680-4 0 9999
2 57941 53.1598 241.9875 0001090 89.8923 270.2203 15.30195314154787
Epoch: Jun 23, 2026 • Age: 46 hours

現在のステータス

高度 480.4 km
速度 7.63 km/s
衛星直下点 50.38°N, 113.95°W
打ち上げ日 Sep 25, 2023
運用期間 2.7 years
タイプ internet

技術仕様

分類 Payload
質量 730.00 kg
乾燥質量 700.00 kg
総質量 730.00 kg
長さ 0.30 m
直径 4.10 m
スパン 29.00 m
形状 Box + pan
製造者 SPXS
バスタイプ Starlink V2M
フェーズステータス In Orbit
所有者/国 SPXS/US

Most Searched